THORAD AGENA D DEB, 5446

Orbit data source: Space-Track

THORAD AGENA D DEB, 5446 is space debris in SSO originally from a launch on Wed, 08 Apr 1970 UTC launched from the Air Force Western Test Range (AFWTR). Debris objects in space refer to the collection of defunct objects orbiting the Earth. Examples of debris include non-operational satellites, rocket bodies, and fragments generated from explosions, collisions, or faulty payload assembly.

Loading next visibility...
Identifier
5446, 1970-025LE
Orbit
SSO
Country
Flag of USUS
Related business
Manufacturer
Unknown
Mission
Spacecraft
Bus & Motor
Unknown
Mass
Unknown
Launch date (UTC)
1970-04-08 (56 years ago)
Launch vehicle
Unknown
Launch site
Air Force Western Test Range (AFWTR)
Object type
Payload
Rocket body
Debris
Shape & HBR
Unknown shape, 0.1 m
Radar Cross Section
Small (<0.1 m²)

Expand to show TLE details & history
Last TLE update: 1 day ago

TLE from 1 day ago
0 THORAD AGENA D DEB
1 05446U 70025LE  26132.09069447  .00000874  00000-0  93550-3 0  9990
2 05446 100.4560 358.6486 0083025 341.5029 173.7878 13.75687649770707
Epoch: 2026-05-12T02:10Z
TLE epoch observation values (Epoch: 2026-05-12T02:10:36.002Z)
Latitude
24.19782°
Longitude
-79.13904°
Altitude
1,042.78 km
Speed
7.302 km/s
True Right ascension
12h 13m 31s
True Declination
24° 04' 28"
Sunlit
Object was in daylight at epoch
Visualization orbit readout
Latitude
Unknown
Longitude
Unknown
Altitude
Unknown
Speed
Unknown
Apparent Right ascension
Unknown
Apparent Declination
Unknown
Sunlit
N/A
Visualization observer readout
Local Sidereal Time
11:03:00
Azimuth
Unknown
Elevation
Unknown
Doppler factor
Unknown
Orbital elements
Apogee altitude
1,037.592 km
Perigee altitude
915.468 km
Semi-major axis
7,354.667 km
Eccentricity
0.0083
Inclination
100.456°
RAAN
358.6486°
Arg. of periapsis
341.5029°
True anomaly
173.8897°
Mean anomaly
173.7878°
Eccentric anomaly
173.83885°
Mean motion
3.44111 °/min
Orbital period
104.62 mins
BSTAR
0.0009355

Documentation

Showing up to 5 results
|